Location: Austin
(30.3000°N, 97.7500°W)
Time: 11:10:38
(UTC-05:00)

USA 234 - Pass Details

Date: 16 June 2025
Orbit: 1102 x 1106 km, 123.0° (Epoch: 4 January)

Event Time Altitude Azimuth Distance (km) Brightness Sun altitude
Rises 02:06:47 0° 33° (NNE) 3,926 7.0 -35.7°
Reaches altitude 10° 02:09:23 10° 27° (NNE) 2,967 6.2 -35.6°
Maximum altitude 02:15:29 43° 319° (NW) 1,507 4.1 -35.3°
Enters shadow 02:16:00 42° 307° (NW) 1,522 4.0 -35.3°
